Theta_e
322 322 322 321 321 321 321 321 321 321 321 321 321 322 322 322 323 323 324 324 324 324 325 325 325 326 326 327 327 325 321 317 318 316 313 318 323 329 333 338 338 339 330 315 311 309 308 309 313 316 317 315 314 312 316 317 317 311 303 299 297 300 299 305 304 305 309 307 311 312 314 314 311 316 318 323 318 318 318 318 319 322 322 324 327 328 331 330
322 322 322 321 321 321 321 321 321 321 321 320 321 321 322 322 322 322 323 323 324 324 325 325 325 325 326 327 327 324 320 318 316 316 315 324 331 336 339 337 340 335 325 312 309 309 308 308 312 315 314 312 318 312 316 313 318 308 301 299 296 302 305 310 310 311 309 308 312 314 316 315 312 316 317 314 313 315 314 315 317 317 320 323 325 327 327 327
322 322 321 321 321 320 320 321 321 321 320 320 320 321 322 322 322 322 322 323 323 324 325 325 325 326 326 327 327 321 320 319 318 314 315 332 337 336 339 339 340 332 314 311 313 312 310 310 310 314 312 312 314 311 315 312 317 312 303 300 301 310 309 313 313 312 314 313 312 313 315 316 315 317 319 313 312 314 312 312 313 315 316 318 321 325 326 326
321 321 321 321 321 320 320 320 321 321 321 320 321 321 322 322 322 322 322 323 324 324 325 325 326 326 326 327 326 321 321 312 306 308 315 330 338 339 338 339 339 330 316 314 313 313 312 312 313 315 312 311 312 315 311 314 311 314 306 303 305 309 308 311 314 314 315 316 313 313 314 314 315 316 316 313 310 309 311 314 314 314 316 318 321 323 324 324
321 321 321 321 320 320 320 320 320 321 320 320 321 321 321 322 322 322 322 323 324 325 325 325 325 326 327 326 324 321 315 297 304 315 317 332 337 339 338 339 337 322 315 315 314 312 312 311 315 314 312 305 311 312 312 315 321 314 307 311 312 312 309 312 314 315 315 315 314 313 312 312 317 316 314 313 308 307 310 316 317 318 318 319 320 322 323 322
321 321 321 320 320 320 320 320 320 321 321 320 320 320 321 320 320 322 322 323 324 325 325 325 326 327 327 322 319 320 307 292 308 314 336 334 336 339 340 340 339 322 314 312 311 310 310 314 314 310 308 308 308 307 312 315 318 305 310 311 311 313 311 314 314 315 315 314 313 312 314 317 314 313 316 315 311 313 319 319 319 321 322 322 322 322 319 318
321 321 320 320 320 319 320 320 320 321 321 320 319 319 320 319 321 321 322 323 325 325 325 326 326 326 326 321 318 315 307 309 313 315 335 337 336 339 342 340 335 316 312 309 310 310 316 315 315 313 311 310 310 310 312 315 317 310 306 311 312 314 313 314 312 315 315 315 313 316 318 313 313 309 316 315 315 318 320 321 321 322 323 323 321 320 319 318
320 320 320 320 320 320 319 320 321 319 318 318 319 319 319 319 320 320 321 322 325 325 325 325 326 326 325 321 312 304 310 310 317 322 335 337 334 338 339 324 319 316 313 311 310 313 315 314 312 314 308 306 311 310 313 311 312 307 307 313 312 313 313 315 315 315 316 315 316 316 313 312 314 313 315 313 316 319 320 321 321 322 322 322 321 319 319 318
320 320 320 320 320 319 320 320 319 318 319 322 319 318 318 318 319 320 321 322 326 325 325 325 326 326 318 312 306 303 306 316 317 318 330 328 327 327 323 316 317 314 312 313 312 316 314 314 316 314 306 311 316 311 315 310 303 313 310 315 312 312 313 314 315 315 315 315 316 313 312 314 316 317 312 314 317 320 321 320 320 320 321 321 320 319 319 318
320 320 320 320 320 319 319 320 318 320 321 319 318 318 318 318 318 319 320 322 326 325 324 325 326 322 319 317 308 301 310 317 318 320 324 324 322 320 319 315 314 314 313 316 319 317 313 314 315 317 316 314 318 311 314 315 306 314 312 312 311 312 313 314 313 313 315 314 315 311 311 312 316 314 305 317 318 321 319 318 318 319 318 319 320 319 318 318
319 319 320 320 320 319 319 318 318 320 321 318 317 317 317 317 317 319 320 321 326 326 325 326 326 322 319 319 301 300 314 318 317 319 325 320 319 314 315 315 315 314 314 318 317 319 318 318 319 318 316 309 317 311 311 311 315 315 313 312 311 311 312 313 313 313 314 313 314 313 310 313 314 312 307 314 319 320 317 316 317 318 318 318 318 318 318 317
319 319 319 320 319 319 318 318 318 320 318 317 316 316 316 316 317 318 320 323 327 327 326 325 323 322 318 312 303 306 314 317 320 318 324 316 316 317 317 318 323 321 320 317 317 319 320 318 320 316 308 317 306 312 311 316 314 313 314 306 308 310 309 312 311 313 314 311 315 313 308 305 308 306 313 317 319 319 316 315 317 317 318 318 318 317 315 314
319 319 319 319 319 317 318 318 320 318 317 316 315 315 315 316 317 319 322 324 328 327 326 324 322 321 317 304 309 318 318 314 318 319 319 314 319 322 324 324 324 323 322 319 319 320 321 321 319 314 316 313 312 304 312 316 313 314 312 307 306 305 304 310 313 313 312 312 314 311 290 295 304 310 314 318 317 317 316 317 318 316 316 316 316 314 314 314
319 319 319 319 318 317 317 319 318 317 316 315 315 315 315 316 317 320 322 323 327 327 324 322 321 321 315 308 316 317 322 316 316 315 316 318 322 321 323 325 325 324 324 320 319 319 321 321 320 318 319 313 309 319 314 314 314 304 309 307 299 297 299 310 312 312 309 313 315 309 294 295 304 310 315 318 318 315 314 316 315 315 315 315 314 313 313 313
319 319 319 318 317 317 318 317 317 316 315 315 314 314 314 316 318 321 324 325 324 326 322 320 319 317 307 311 319 322 352 313 313 314 315 320 320 319 320 322 322 323 321 321 321 321 321 321 319 313 309 316 316 312 305 305 307 306 297 295 299 295 299 309 314 311 306 310 313 306 295 298 305 310 315 318 318 316 314 314 316 315 316 315 314 314 313 314
319 319 318 317 316 317 317 316 315 315 314 314 314 313 314 317 320 323 326 323 324 322 319 322 319 313 307 301 312 330 315 312 313 317 320 322 320 318 321 321 322 322 323 320 323 322 320 319 314 312 312 312 307 303 301 300 299 302 296 294 296 297 298 303 310 312 312 310 311 307 296 301 304 311 314 317 317 318 315 313 315 316 316 315 314 313 312 313
319 318 318 317 316 316 316 316 315 314 313 313 313 313 316 318 321 324 324 320 321 322 324 316 318 315 305 310 316 311 308 312 313 318 320 322 322 321 320 319 318 318 321 322 324 320 319 314 315 313 312 306 306 305 297 291 293 296 298 293 298 297 297 295 306 310 311 309 304 309 303 303 305 311 313 316 317 316 314 314 314 315 315 316 315 314 312 312
318 318 317 317 316 316 316 315 315 314 312 312 312 314 313 318 321 320 318 318 322 320 318 322 316 307 303 313 307 306 310 311 315 316 319 319 324 321 317 315 318 316 317 319 319 318 317 309 310 304 304 306 304 299 293 290 293 292 294 294 296 299 299 298 298 306 308 308 304 304 303 304 307 310 312 314 316 315 313 313 314 315 315 315 315 314 313 311
318 317 317 317 316 315 316 316 315 313 312 311 315 318 318 316 317 317 313 316 310 304 299 304 304 298 296 305 310 311 310 313 313 317 316 318 320 319 318 316 314 312 312 311 311 315 312 306 305 299 298 299 301 301 298 301 303 300 299 297 296 296 297 297 303 308 308 304 302 303 300 303 306 308 311 313 315 313 313 314 314 314 315 315 315 314 312 311
317 317 317 316 316 315 314 314 314 312 311 310 312 313 309 305 302 301 308 311 307 307 306 306 308 308 308 308 308 311 313 312 308 312 317 325 318 315 314 313 312 311 308 304 309 311 314 299 296 297 300 302 306 307 308 309 308 306 304 302 299 298 300 303 305 308 309 305 302 303 303 304 306 308 310 312 313 312 311 312 312 313 314 314 314 312 311 311
317 317 317 316 316 314 313 312 312 311 311 309 310 307 300 301 298 297 305 309 310 311 310 311 312 310 309 310 309 310 306 306 309 309 316 323 317 311 308 310 304 302 304 310 307 311 306 298 300 303 307 307 308 309 310 308 309 305 302 300 297 300 296 303 304 307 309 304 300 304 304 304 305 307 309 311 311 309 310 311 311 313 314 315 314 312 311 312
317 317 317 316 315 313 312 311 310 310 311 310 311 306 307 306 309 309 308 303 310 313 312 313 314 311 315 313 312 310 308 304 304 306 316 318 313 306 307 306 306 303 305 307 303 300 299 298 303 308 310 309 309 309 309 308 306 303 299 298 297 296 301 305 306 308 308 305 299 303 302 303 305 307 309 309 310 310 312 313 313 314 314 314 314 311 311 311
316 316 316 316 314 312 310 310 309 308 311 312 310 310 309 311 314 317 316 307 305 313 312 311 310 311 310 310 311 310 305 302 301 305 313 315 309 307 306 303 305 307 307 304 300 297 296 299 307 311 309 308 307 307 307 305 304 301 299 297 293 299 298 294 303 307 307 304 301 303 301 300 305 307 307 310 310 310 313 315 315 315 314 314 313 312 311 311
316 316 316 315 314 312 309 308 308 310 311 311 313 313 315 313 314 316 312 304 303 308 311 312 309 307 305 307 309 308 303 304 303 303 310 312 306 310 306 306 304 304 301 303 302 298 297 303 309 309 309 307 304 305 303 299 299 303 303 301 299 302 300 299 300 305 307 306 307 302 297 299 301 301 303 306 310 310 312 314 314 315 316 316 315 313 313 311
315 315 315 315 314 310 308 308 309 308 312 312 313 317 319 318 315 314 311 304 303 304 312 311 310 308 309 313 312 306 305 305 305 308 311 313 309 307 306 309 303 300 301 305 304 302 304 308 309 310 307 305 304 302 303 300 297 298 306 303 303 305 303 303 303 300 294 295 304 301 289 290 297 301 302 304 306 306 311 311 312 313 314 315 312 312 313 313
315 315 314 314 312 309 308 310 307 310 310 311 313 318 319 320 317 317 307 296 291 300 307 303 307 302 312 307 308 305 303 300 305 309 313 315 316 310 308 304 305 302 304 302 302 300 303 309 312 307 306 305 304 302 304 302 296 294 299 307 308 306 305 305 305 298 291 289 298 303 290 284 294 299 301 303 304 305 307 310 311 313 314 314 313 312 312 312
314 314 313 313 311 309 307 305 308 311 309 311 317 317 319 320 320 314 303 287 285 301 300 304 303 304 309 307 306 304 292 294 305 309 308 314 310 313 304 299 305 305 307 305 297 298 309 306 305 307 304 301 299 298 303 303 297 295 303 307 307 306 304 304 303 297 292 301 303 304 296 288 289 296 302 304 303 304 304 308 310 313 313 314 313 313 313 312
314 313 313 312 310 309 303 304 307 307 310 314 317 317 320 321 319 314 294 281 283 305 300 300 305 311 308 307 305 301 300 304 300 304 308 309 311 308 305 301 302 302 304 300 291 299 306 303 305 303 302 298 298 301 304 306 300 299 305 307 305 307 307 306 300 296 297 293 290 293 301 290 286 292 302 304 301 301 303 306 308 311 313 314 314 314 314 313
313 313 313 312 310 309 306 306 307 306 314 316 316 318 323 321 312 304 285 281 298 305 310 301 312 308 305 307 303 302 303 305 299 302 309 311 312 307 300 301 304 301 305 301 296 301 305 304 305 305 300 298 302 304 304 306 301 305 307 308 308 309 309 306 298 297 294 287 286 293 297 287 285 291 298 302 300 300 302 306 308 310 313 313 314 314 314 313
312 312 312 311 308 310 305 308 307 314 317 315 316 321 322 310 302 291 282 280 303 294 303 303 302 299 303 299 299 302 300 302 304 307 308 305 307 309 309 307 305 303 302 303 301 301 304 313 312 306 302 304 303 303 305 305 306 308 308 305 304 304 302 302 298 293 288 284 288 295 301 292 284 290 297 297 298 303 303 304 307 310 312 313 314 315 314 313
311 311 311 310 303 306 304 303 308 312 313 315 319 321 309 302 292 281 280 290 302 298 303 301 298 303 299 297 294 298 300 301 302 304 301 304 304 304 303 302 302 297 296 295 298 303 306 306 306 306 312 309 305 305 307 309 308 306 303 299 299 296 295 290 289 290 283 282 287 299 300 297 286 288 295 303 303 305 306 304 305 309 310 312 313 315 314 313
310 309 310 307 307 309 302 304 309 312 312 315 321 315 300 290 290 283 284 306 293 296 297 296 300 299 298 298 297 297 296 299 300 301 298 297 298 298 297 293 298 289 290 293 294 298 301 301 303 306 313 307 304 302 302 303 303 302 300 297 290 286 284 283 285 284 282 284 291 300 300 291 288 291 297 302 304 305 308 307 307 309 310 311 313 314 314 313
308 308 309 308 308 303 305 309 311 311 313 316 316 303 293 283 281 287 291 298 291 301 298 303 297 299 299 298 294 298 300 295 299 300 300 299 298 298 300 299 300 295 289 292 293 292 293 298 304 305 305 309 304 298 296 296 298 297 295 292 287 281 280 279 282 285 283 289 297 298 301 290 292 297 303 302 305 307 309 309 310 311 311 312 312 313 314 313
307 307 305 308 308 310 312 312 312 313 312 315 306 296 291 284 285 308 297 298 299 305 304 302 301 299 298 292 294 298 295 298 298 297 300 298 298 296 299 301 301 299 295 294 291 290 284 288 296 301 298 305 303 299 297 298 298 299 301 296 291 286 285 282 282 283 285 285 291 300 292 287 290 295 305 307 307 307 309 310 311 313 313 313 313 314 313 312
306 306 307 309 309 313 311 313 313 315 314 311 301 291 283 283 288 291 294 298 301 302 300 302 300 297 295 296 296 299 298 293 299 297 296 295 293 294 296 298 301 300 298 293 295 292 293 287 295 304 304 305 303 304 307 304 299 300 304 299 293 293 290 288 288 287 288 287 285 287 289 294 294 302 307 308 306 307 309 309 311 311 312 312 310 311 311 311
307 308 308 305 309 313 318 318 316 316 312 304 293 288 285 289 290 297 298 304 302 299 300 299 296 291 291 290 295 297 300 296 297 296 296 295 296 296 299 299 300 300 296 289 293 289 291 292 300 303 305 304 304 306 306 305 291 298 299 292 296 302 299 287 290 292 290 284 284 286 291 293 300 302 303 307 307 307 308 309 310 310 310 309 308 310 311 311
304 305 306 309 310 314 315 320 322 315 308 301 292 287 291 298 300 299 304 304 303 301 298 292 293 293 291 291 293 295 297 297 296 295 291 295 293 297 299 299 303 302 300 295 294 294 288 288 297 299 300 304 307 305 307 304 304 298 292 295 303 305 300 290 285 284 281 282 283 289 288 289 288 288 302 304 305 306 308 309 310 310 308 307 308 310 311 311
301 302 307 308 311 314 315 318 316 310 306 297 289 299 303 299 306 304 304 303 303 302 296 294 294 298 294 293 292 297 298 293 291 294 290 294 291 301 302 300 303 303 302 300 293 296 294 290 297 300 301 303 306 304 302 305 308 299 296 304 296 289 289 293 285 282 281 281 280 285 289 289 290 291 297 301 303 304 306 308 308 307 307 307 309 310 311 312
301 303 304 313 318 317 317 316 312 308 301 295 291 293 299 303 306 305 306 305 304 302 295 299 295 297 298 294 297 297 297 290 293 294 289 293 291 300 301 301 302 303 302 300 296 296 295 285 290 298 302 302 302 300 290 295 302 305 306 301 305 295 291 289 287 287 284 281 281 282 287 284 294 294 299 301 303 305 305 306 307 308 309 309 310 311 311 312
304 303 301 314 317 321 320 316 309 302 297 290 291 297 303 304 306 308 307 304 303 299 297 297 299 294 297 298 299 295 297 298 294 294 293 295 294 305 303 304 301 302 302 302 298 298 295 293 284 293 300 298 294 298 294 296 294 297 297 296 298 298 300 295 296 293 288 282 279 279 280 284 291 299 302 302 304 305 307 307 308 308 309 310 311 312 312 312
307 303 304 314 319 318 315 308 301 298 296 297 303 303 304 305 307 307 308 307 303 304 300 300 298 294 297 296 296 300 298 296 297 294 296 294 298 290 301 304 302 301 303 302 300 297 289 290 285 289 292 294 292 298 301 301 299 295 295 291 295 292 291 287 286 295 294 289 283 282 282 285 294 306 306 305 306 306 308 308 308 309 309 310 311 313 313 313
301 293 298 314 316 315 306 298 298 301 299 297 297 303 303 313 305 305 307 305 305 301 304 302 301 300 299 299 299 298 298 295 296 295 297 295 298 297 299 304 303 302 298 295 296 303 295 294 289 288 293 296 298 302 302 304 301 300 299 296 298 294 292 285 284 285 292 293 293 288 285 286 297 304 306 306 307 308 309 309 309 310 310 310 312 313 314 314
301 297 308 313 315 314 304 296 295 296 298 299 306 305 306 305 305 306 305 304 303 303 302 301 301 298 299 300 299 297 298 296 299 297 298 298 298 302 303 301 302 303 300 297 300 300 322 290 287 291 292 295 299 301 302 303 300 298 297 298 298 294 296 292 289 291 287 290 288 285 284 286 297 304 306 306 307 308 309 310 310 310 310 310 311 312 313 313
303 303 306 313 317 311 300 290 287 286 297 304 307 305 310 309 308 306 302 303 302 300 301 301 300 301 299 301 299 297 299 290 297 298 294 298 298 304 306 307 305 302 299 299 295 302 290 292 293 283 280 284 288 292 293 297 298 296 296 297 298 298 302 302 298 293 287 290 290 285 283 283 294 304 306 307 308 308 308 310 310 309 309 311 312 313 313 313
302 304 305 307 312 307 299 297 294 291 298 299 301 300 303 307 308 306 304 303 305 301 301 300 302 301 298 300 300 299 300 297 294 296 299 299 298 304 306 309 311 307 318 311 322 302 294 292 286 282 282 280 280 280 283 288 290 294 298 299 299 300 299 294 288 288 285 290 293 285 284 290 297 302 303 305 306 306 308 308 309 311 311 311 312 312 313 313
301 290 297 300 305 305 302 303 301 298 295 297 293 298 305 303 307 308 307 305 305 305 301 302 302 302 300 299 297 297 298 301 297 296 296 295 297 302 305 310 313 313 324 328 317 303 296 296 290 286 283 283 285 289 292 295 294 292 294 296 296 299 299 296 291 285 284 287 290 289 292 292 296 299 301 301 304 305 307 307 308 310 311 313 313 313 313 313
303 296 291 290 299 302 299 300 300 298 292 298 290 302 303 304 305 306 308 303 306 306 303 303 302 300 299 298 297 297 298 298 298 298 297 301 302 301 305 307 308 322 327 315 316 298 293 288 295 294 293 292 293 295 298 299 296 296 294 295 296 298 299 293 287 291 293 290 284 291 297 294 295 298 301 301 303 305 307 308 307 309 311 312 313 313 315 313
293 297 304 305 297 286 292 291 300 299 299 302 296 304 301 301 303 299 305 306 306 306 300 299 303 303 300 300 300 293 296 297 296 297 303 304 303 305 303 306 305 313 313 306 307 298 291 287 298 296 296 299 298 298 298 298 298 298 297 297 296 296 297 297 293 296 294 287 286 291 297 295 296 299 301 302 304 306 308 309 309 312 312 313 313 313 313 312
301 302 303 309 297 300 297 299 304 302 302 302 296 301 299 301 300 303 304 303 304 304 302 290 298 302 303 302 300 295 297 291 290 300 302 301 303 300 299 301 305 308 305 304 305 301 293 291 299 298 296 296 297 297 297 297 297 297 297 296 297 298 297 298 298 300 298 294 294 296 298 298 300 299 301 304 305 308 309 310 309 310 312 313 313 313 313 312
299 297 295 303 306 303 303 303 304 301 297 304 296 300 302 302 300 303 306 304 295 301 305 301 300 303 302 303 301 297 302 300 301 298 304 302 300 302 300 301 300 305 305 303 306 304 297 288 298 296 290 294 297 298 298 297 297 295 296 297 297 298 297 298 299 299 301 298 300 299 297 297 301 304 304 305 306 308 310 309 310 311 312 313 313 313 313 313
303 305 305 299 295 297 303 302 299 298 295 294 298 301 305 307 304 306 305 307 304 303 306 305 306 307 307 306 305 304 308 306 307 305 307 305 298 305 301 300 306 301 303 301 302 303 297 291 297 291 286 290 295 297 297 298 296 295 294 295 297 297 295 295 295 298 298 295 296 296 295 295 300 303 306 307 307 308 309 309 309 310 312 313 312 313 313 313
308 309 311 304 294 303 298 301 298 297 290 297 303 304 303 303 307 306 296 303 307 308 311 310 308 304 303 303 304 307 309 309 308 309 307 308 307 305 305 306 307 304 300 302 305 300 296 293 292 287 288 284 290 296 298 294 292 290 289 294 298 298 298 298 298 300 300 300 293 290 290 296 302 305 306 306 306 307 308 310 309 309 311 313 313 313 314 314
Wind_Speed
21 21 20 20 20 19 19 17 15 15 16 15 14 13 12 11 11 10 9 8 8 8 8 8 9 9 10 9 8 7 9 1 1 0 1 7 4 4 4 6 4 4 3 0 3 3 6 5 4 3 0 2 3 4 1 6 3 5 5 5 6 1 2 1 4 3 4 5 3 3 3 5 7 3 4 5 10 7 7 8 3 8 6 2 1 3 1 1
20 21 21 20 20 19 19 18 16 16 17 16 15 14 13 12 11 10 10 8 8 8 8 7 8 10 9 8 7 7 5 0 1 1 10 2 5 7 6 7 2 1 3 0 1 1 3 7 4 7 5 4 4 4 4 2 3 6 3 5 4 0 1 1 3 8 6 3 6 2 2 2 6 3 1 6 5 7 10 5 4 6 5 4 4 4 3 3
20 20 21 20 20 20 19 18 17 15 17 17 16 13 13 11 11 10 10 8 8 7 8 8 8 9 8 7 7 4 3 2 0 1 3 5 8 6 6 6 3 4 1 2 1 1 1 2 5 1 3 5 7 3 4 3 4 4 6 7 2 1 3 7 8 8 6 11 8 7 5 5 3 2 2 6 8 7 8 4 4 5 4 3 2 2 3 3
20 20 20 20 19 19 19 18 16 15 15 17 15 14 13 12 10 10 9 8 7 7 7 9 8 7 7 7 5 2 0 1 2 3 2 5 5 7 6 5 5 5 2 2 2 2 2 2 1 1 4 7 3 6 8 5 4 2 6 2 1 2 4 6 10 8 10 11 12 9 7 6 4 3 2 7 11 4 1 1 3 5 4 2 0 1 2 2
19 19 19 20 20 19 19 18 17 14 15 16 14 13 14 10 9 10 8 7 7 6 7 7 7 6 7 6 7 2 2 4 2 2 3 6 7 8 7 8 7 3 3 1 2 3 2 2 1 4 4 3 4 2 5 7 4 4 2 1 0 2 6 5 9 9 8 8 8 6 8 6 6 5 3 2 7 5 2 2 3 4 4 3 2 2 2 4
18 18 20 20 20 20 19 18 16 13 13 15 14 13 11 12 11 8 8 7 6 6 6 5 5 7 4 4 4 1 1 3 2 2 8 10 9 10 10 9 5 1 2 1 0 2 4 2 4 4 3 4 4 6 1 2 1 7 2 1 0 1 5 2 10 7 9 7 7 6 5 5 3 4 3 6 4 1 1 3 4 3 3 3 2 4 5 6
18 18 19 21 20 20 19 18 16 12 13 16 17 14 14 13 11 9 8 7 6 5 4 3 4 5 2 2 2 1 2 2 2 6 9 10 11 9 6 4 5 3 3 3 2 3 6 8 6 4 4 5 4 5 5 2 5 7 3 3 3 3 0 1 7 9 8 10 7 6 8 8 8 7 2 6 1 2 2 3 3 3 3 4 5 4 5 5
18 19 20 21 21 20 19 18 14 18 24 21 16 16 15 14 12 9 8 7 6 4 3 3 4 2 1 2 0 1 1 2 9 2 11 10 8 3 4 2 3 2 3 2 3 1 6 7 6 3 7 5 1 4 0 9 7 6 4 1 1 3 8 11 10 10 11 10 8 9 9 4 5 5 3 2 3 3 3 3 4 5 4 4 5 4 4 4
20 20 19 20 19 19 16 16 19 26 19 14 18 17 16 14 12 9 7 8 5 3 2 4 2 2 2 1 1 3 1 4 6 6 6 6 4 4 6 1 2 1 1 5 3 2 6 3 1 2 4 3 2 9 1 6 4 2 3 1 8 8 9 10 11 9 10 6 8 13 10 7 7 6 5 0 1 0 2 3 4 5 5 4 4 4 4 4
22 23 19 18 18 20 15 17 25 19 12 19 19 17 16 15 13 10 7 7 4 2 1 2 1 3 1 1 2 2 5 5 3 7 7 2 3 5 6 3 4 2 0 3 10 9 4 3 9 7 12 7 2 3 2 4 4 2 3 5 9 8 8 6 10 8 7 6 8 13 9 9 4 4 0 1 1 1 3 3 3 6 3 2 3 2 3 4
23 24 21 21 18 19 18 23 23 16 15 22 21 18 16 15 13 11 8 6 4 1 2 2 3 2 2 0 3 1 5 5 3 4 7 6 4 5 1 5 7 2 2 9 7 6 7 11 10 3 4 3 4 4 4 4 6 5 7 9 9 9 9 9 9 10 7 4 6 10 8 3 2 3 3 2 1 2 4 2 3 4 4 3 3 3 3 3
23 23 22 17 18 17 25 23 23 13 21 22 21 19 17 15 13 12 7 5 4 6 4 4 5 0 0 1 3 4 6 6 4 4 7 6 3 3 3 4 5 5 8 7 5 4 7 7 3 3 4 2 6 5 6 3 5 4 9 8 5 7 6 5 6 3 4 3 5 7 7 5 4 3 2 3 0 2 3 3 2 3 4 4 2 2 3 3
23 22 23 18 16 22 24 24 17 21 23 22 21 20 18 15 14 10 4 4 5 7 6 7 4 1 1 4 5 8 4 1 2 7 4 4 1 3 3 4 7 6 7 7 3 3 5 8 10 12 5 4 2 2 4 5 6 5 4 5 4 4 3 2 3 4 7 7 12 5 2 4 2 1 2 3 2 2 2 1 2 1 2 2 2 3 3 2
23 24 21 15 22 24 25 18 24 23 23 22 22 21 19 16 12 9 3 5 5 6 7 8 1 0 1 3 5 4 3 4 9 7 6 8 5 3 5 5 6 4 3 5 3 4 5 8 11 9 3 4 4 2 6 2 3 4 1 4 3 4 2 4 3 5 7 8 1 3 5 3 2 3 4 3 3 4 3 3 3 3 3 3 4 4 3 1
23 21 19 24 24 25 24 24 23 25 23 22 23 22 20 15 10 6 4 7 4 7 9 5 1 1 2 5 5 8 5 2 4 1 3 9 9 3 3 6 7 5 3 4 1 2 5 7 7 4 3 2 6 5 3 3 2 2 3 1 1 4 1 2 4 6 7 4 2 9 3 5 4 5 5 5 3 3 4 3 3 4 3 4 4 3 3 3
19 22 24 23 25 26 26 24 25 25 24 25 23 25 20 10 6 2 8 6 9 10 4 1 1 1 1 3 1 3 2 0 1 3 5 11 5 6 3 3 3 4 5 3 3 4 4 4 6 4 4 4 9 7 4 4 3 2 4 1 1 2 3 3 7 6 6 4 6 1 3 1 3 5 5 5 5 5 3 3 4 5 4 4 4 3 3 3
22 25 24 24 25 26 27 25 26 26 25 27 25 22 15 2 2 5 10 12 6 3 1 1 2 1 1 2 1 2 4 2 4 3 1 3 10 9 7 4 2 2 3 3 5 6 5 4 1 2 3 5 4 6 7 4 1 1 2 2 3 5 2 1 3 6 5 4 3 3 4 5 2 5 7 6 6 5 4 6 5 6 4 4 4 4 3 3
22 25 25 24 26 27 27 27 27 26 27 27 22 14 14 7 11 13 7 2 3 2 2 1 0 2 6 3 2 3 2 1 5 5 6 3 11 10 5 2 1 4 2 2 4 5 3 2 2 3 2 1 2 4 5 2 4 3 0 1 0 1 4 4 5 4 5 3 4 3 3 5 3 6 7 9 8 6 6 6 7 8 6 5 5 4 4 3
21 24 26 24 26 26 28 22 26 27 25 25 17 11 4 5 4 0 4 2 2 3 1 1 2 1 1 2 7 7 3 6 4 6 2 6 3 3 3 3 5 3 1 5 3 3 3 3 5 5 2 1 1 5 4 5 5 5 6 5 4 5 4 3 6 6 10 4 5 5 5 4 4 6 7 7 8 8 7 5 5 6 7 6 4 4 4 4
20 23 27 26 26 26 28 25 27 27 22 15 12 7 6 10 8 4 8 6 1 3 4 5 4 5 8 12 4 2 2 4 6 2 5 3 6 2 3 2 3 5 3 1 2 2 1 6 4 2 1 5 4 5 5 3 5 3 4 3 5 5 1 3 3 8 8 4 4 5 4 6 7 9 9 9 7 6 6 7 6 6 8 7 5 6 6 4
21 23 26 28 27 27 27 28 26 25 20 4 5 8 5 4 5 5 7 9 6 5 5 8 8 6 8 7 3 2 1 2 1 2 4 1 3 5 1 2 5 3 1 2 2 1 7 5 2 3 1 6 5 3 5 5 4 5 4 2 1 4 4 5 6 5 6 5 0 5 7 6 9 8 8 7 6 7 8 8 6 8 8 8 7 8 6 5
21 22 26 29 27 27 28 28 27 23 15 3 6 7 4 2 0 4 1 6 12 10 5 10 9 8 8 11 8 5 5 1 3 2 2 5 2 2 1 3 1 2 1 2 3 5 5 1 2 3 2 5 6 4 4 4 2 3 4 4 0 3 2 0 3 5 4 6 2 5 7 8 8 8 7 8 10 6 9 12 10 11 9 8 7 7 6 4
21 22 24 24 28 27 29 27 27 20 6 7 6 7 5 5 4 3 1 2 6 8 5 6 5 11 10 6 3 6 2 2 3 2 7 3 1 2 3 2 0 0 2 2 2 1 2 3 6 3 6 8 2 5 7 6 4 4 3 2 0 2 6 1 3 5 3 2 5 6 7 5 4 5 6 8 10 5 10 11 10 11 12 10 11 10 8 7
20 21 23 25 28 28 29 29 22 6 8 7 1 8 4 4 4 6 3 2 3 8 4 5 4 4 3 1 2 3 3 2 3 5 4 5 3 2 2 3 1 1 1 3 6 4 2 3 2 1 9 9 6 3 6 5 3 2 4 1 1 1 3 6 5 1 2 3 5 5 2 1 3 4 5 5 5 4 8 8 6 6 10 9 6 7 8 9
20 21 22 20 27 27 32 23 6 7 6 5 0 7 9 7 4 5 1 3 2 5 5 4 4 1 1 2 0 1 1 2 1 3 3 7 3 2 1 1 2 1 2 3 4 5 1 2 2 1 2 5 6 3 3 7 3 1 3 4 4 2 6 4 7 5 2 1 2 5 2 2 3 6 9 5 3 4 8 9 8 7 8 7 9 9 6 5
20 20 21 21 25 28 29 4 5 10 9 1 3 9 8 9 5 4 2 2 3 5 4 2 1 2 1 1 2 2 4 1 3 3 5 8 7 4 1 0 2 1 2 3 5 3 3 1 2 3 4 3 2 2 3 4 3 2 2 5 6 7 8 7 1 3 1 2 4 3 3 3 1 4 6 4 5 7 3 8 9 9 10 9 9 9 7 7
20 20 20 21 21 24 11 2 4 10 2 3 9 9 9 7 5 3 2 4 3 2 2 1 1 1 3 1 1 2 1 3 4 1 1 1 4 1 4 2 1 1 1 2 4 1 0 2 2 4 4 2 2 2 4 7 6 0 3 7 4 5 6 5 4 4 2 2 3 1 2 2 1 6 5 6 7 7 4 6 8 10 11 10 9 9 7 8
21 20 19 20 21 16 4 3 9 7 4 5 8 9 9 7 4 3 3 2 0 4 0 1 1 2 1 0 6 1 5 2 2 3 3 5 5 2 1 5 6 6 2 4 4 4 3 3 2 3 2 1 2 2 6 6 5 3 3 4 3 5 3 4 4 3 1 5 1 6 2 1 2 5 3 7 5 5 7 9 8 10 11 10 10 10 8 10
21 20 19 19 22 17 3 2 4 6 5 6 9 9 8 4 3 5 3 1 2 0 4 2 4 0 3 0 2 4 0 1 3 3 1 1 0 4 0 4 4 2 1 6 6 2 2 4 3 5 5 3 4 2 3 7 3 3 3 3 3 5 3 3 3 3 2 4 1 4 1 1 4 3 2 2 4 7 9 11 10 12 13 11 10 9 8 8
20 20 19 19 16 1 3 2 7 8 7 8 9 11 6 2 2 2 2 1 1 1 1 1 1 3 1 2 2 0 3 1 2 0 2 2 3 1 0 2 2 1 0 2 4 7 2 2 4 3 2 3 4 3 1 3 5 6 7 5 3 3 2 2 5 3 4 4 2 4 3 2 1 3 7 8 9 12 7 4 4 7 9 10 10 11 9 10
20 21 19 14 6 4 5 8 7 5 4 7 10 8 2 5 2 4 1 2 0 3 1 0 3 2 3 2 3 2 1 1 1 3 1 2 1 4 2 1 6 4 4 5 3 2 2 1 1 1 4 2 3 6 4 4 3 4 2 4 3 2 4 2 4 5 3 1 4 2 2 2 1 3 5 9 2 5 11 12 11 11 12 11 11 10 10 11
21 22 23 12 7 0 2 6 6 5 8 9 8 4 4 1 5 1 2 5 1 3 1 2 2 3 4 2 4 1 3 1 2 4 5 3 4 3 1 4 2 1 1 0 3 3 1 1 2 3 1 7 1 5 2 4 6 7 6 7 5 2 4 2 7 5 1 1 1 1 1 2 3 5 4 6 11 7 12 12 14 14 13 12 12 12 10 10
22 22 26 9 6 3 8 13 9 9 7 8 4 3 3 5 1 3 1 2 1 2 2 1 3 3 1 0 2 2 2 5 2 3 5 0 5 4 5 5 8 6 1 3 2 2 4 4 3 1 3 1 6 4 1 2 5 6 3 3 3 2 2 1 2 1 3 6 5 2 2 1 3 6 6 9 10 11 14 12 13 15 15 14 13 11 10 10
22 21 12 7 7 11 11 5 8 4 5 5 1 5 7 3 1 6 2 1 3 4 3 3 2 1 3 6 4 2 1 3 4 3 3 3 3 3 3 5 5 1 4 1 3 4 1 1 2 2 0 0 2 6 6 4 2 1 3 2 2 4 1 0 1 1 1 4 5 5 1 1 4 3 4 7 8 6 9 10 12 14 14 13 11 11 10 10
25 15 8 12 4 7 11 10 8 2 0 2 6 5 3 4 2 0 0 2 3 5 3 3 1 0 1 1 2 2 3 2 2 4 1 4 4 3 5 4 4 4 2 5 2 2 4 3 4 5 4 4 5 2 4 6 4 1 2 4 4 1 5 4 2 3 1 2 3 2 1 2 3 3 4 4 1 7 9 9 10 10 10 9 8 10 10 10
15 10 8 6 4 5 5 5 3 4 2 4 3 1 3 5 0 1 1 2 3 3 6 7 5 3 1 2 3 3 5 1 1 3 1 6 3 1 2 3 5 7 5 3 3 1 2 0 1 2 2 7 6 4 2 4 1 1 1 0 3 3 9 5 1 1 2 2 1 1 5 4 6 3 2 3 7 4 8 9 11 11 10 8 9 10 10 10
10 10 8 5 5 6 3 4 5 4 4 6 4 1 5 3 6 2 3 1 4 4 3 5 3 2 3 4 2 3 3 4 3 3 1 0 1 0 1 2 4 1 6 7 2 3 6 2 3 4 2 6 1 4 1 2 7 5 1 4 2 2 5 5 1 2 4 2 2 2 2 6 4 1 3 4 5 3 7 10 12 11 9 10 10 11 12 12
9 6 6 8 9 5 3 2 6 5 3 2 1 6 1 0 3 2 2 5 4 2 2 1 3 6 2 2 6 5 3 1 4 2 1 0 1 2 1 1 2 6 4 2 4 2 6 4 1 4 8 3 5 5 1 2 2 3 3 4 3 1 1 4 3 2 1 1 3 4 1 4 4 3 1 2 7 6 6 7 9 9 9 9 9 9 9 9
3 2 6 5 3 4 3 5 6 5 2 2 2 1 3 4 3 2 5 6 3 4 0 0 0 1 2 1 2 4 3 1 2 1 3 1 2 3 3 4 2 1 3 7 5 2 3 3 2 5 1 3 2 4 4 5 3 2 3 2 0 5 2 2 2 2 4 1 1 3 2 2 4 3 4 5 5 7 7 7 11 13 12 10 10 10 11 11
5 4 4 4 3 2 2 5 4 4 3 1 3 3 2 2 4 8 8 1 2 2 1 0 0 1 2 1 1 2 3 2 3 2 2 2 1 2 2 3 1 2 5 4 2 1 1 2 1 3 3 2 3 1 6 7 4 1 2 1 1 1 3 5 1 0 2 3 3 1 2 5 7 6 5 7 8 9 11 12 11 10 10 11 12 12 12 12
1 1 6 5 3 4 5 6 2 1 1 3 1 2 2 2 2 3 8 10 1 3 2 0 0 0 2 4 5 0 2 3 0 2 0 2 0 3 5 5 5 2 2 8 6 2 3 1 3 2 3 1 6 6 7 6 7 5 7 5 7 4 2 2 1 1 2 2 1 2 5 7 9 2 6 6 7 7 9 13 11 10 10 11 10 11 12 11
1 1 4 3 6 4 2 2 1 1 1 2 3 2 2 3 3 6 6 3 2 3 0 1 0 1 0 1 2 2 1 3 2 3 2 3 3 2 4 6 4 3 5 4 4 2 4 3 5 1 1 2 4 6 2 7 4 4 7 2 6 3 6 5 2 4 1 1 4 3 1 6 6 1 4 7 6 7 8 11 11 10 9 10 11 12 12 13
1 5 8 12 7 3 1 0 2 2 1 3 4 5 4 4 4 4 6 2 1 2 1 0 1 2 2 1 1 1 1 1 0 1 2 4 3 4 9 7 4 7 6 1 3 0 7 3 2 3 5 5 7 6 3 2 3 4 2 2 4 3 6 8 5 5 5 1 1 1 1 5 6 2 2 7 7 5 4 8 12 10 7 9 11 11 11 9
2 3 7 6 1 3 3 2 2 2 3 3 2 3 3 3 4 5 4 1 0 3 1 1 3 1 3 1 0 2 2 2 3 3 2 1 3 5 9 10 8 0 1 5 4 2 3 3 6 2 2 5 8 9 6 9 4 1 3 3 2 3 6 3 3 2 2 4 6 4 2 2 3 4 4 4 5 4 6 6 8 9 5 9 11 11 10 11
2 3 4 7 4 3 2 4 3 2 2 2 2 5 5 3 4 5 3 1 0 1 2 1 1 3 2 1 0 0 1 1 1 2 0 2 4 3 9 9 7 5 5 1 5 2 5 3 3 4 2 1 1 3 5 7 5 4 1 4 1 6 6 3 0 1 1 1 3 2 3 8 8 6 5 4 6 6 5 4 3 7 10 10 10 11 11 12
0 0 5 3 2 1 1 1 1 1 2 1 4 5 2 2 5 4 4 3 2 0 2 2 2 5 2 5 4 3 2 1 3 2 3 3 4 4 5 8 8 4 5 8 2 4 2 1 4 6 6 7 6 4 5 2 3 3 4 4 7 1 1 5 5 5 3 3 4 6 6 3 7 6 5 5 6 9 9 5 4 4 5 8 11 12 13 13
1 1 1 2 6 1 2 2 1 1 2 3 1 1 1 1 2 5 3 1 1 1 1 0 1 1 2 4 2 2 1 4 3 3 6 6 4 3 6 6 5 6 3 3 3 5 3 4 4 3 2 2 5 3 2 1 4 2 4 6 6 4 1 2 1 1 4 8 1 5 5 3 8 7 8 6 6 8 8 6 4 4 8 11 12 11 10 9
1 4 1 0 1 2 2 6 2 3 5 1 4 0 3 4 2 1 5 2 3 0 0 5 2 0 3 2 1 1 4 4 3 2 4 4 3 9 4 5 5 8 4 2 3 4 3 2 1 3 1 1 1 2 3 3 1 1 0 2 5 4 3 0 3 3 6 3 5 5 6 5 7 8 9 8 8 11 12 11 10 10 8 6 9 12 13 12
2 2 2 2 0 2 2 4 3 3 4 4 2 3 3 3 4 2 1 4 4 1 3 1 2 3 1 1 2 1 2 2 3 2 2 4 2 4 5 5 4 8 5 2 3 1 5 1 0 1 1 3 4 4 3 6 4 4 4 4 4 1 5 3 2 4 7 3 7 5 7 13 10 7 7 8 6 8 6 3 3 6 10 12 12 13 13 13
2 1 2 4 0 3 3 3 2 1 3 3 2 3 3 2 4 2 1 1 3 7 4 2 4 3 2 6 4 3 1 2 1 0 1 1 6 2 1 1 2 6 5 1 0 2 5 2 5 1 2 2 5 7 5 5 3 4 7 7 4 2 2 1 0 1 1 2 4 1 0 6 8 7 9 3 4 3 3 5 10 10 10 12 13 13 13 13
2 1 0 2 3 4 2 1 3 1 0 3 1 4 0 1 1 1 2 2 3 2 1 1 3 2 3 6 6 4 1 2 0 2 2 1 0 2 1 3 2 4 5 4 2 2 4 1 2 2 2 3 3 1 4 5 4 4 5 7 5 3 4 3 2 2 0 3 2 3 1 6 9 6 4 0 4 7 9 9 7 7 9 12 13 12 12 12
1 2 1 2 1 2 1 1 2 0 2 4 2 2 0 3 3 3 4 4 1 2 1 1 2 5 3 5 5 3 1 1 2 4 3 5 4 4 4 4 1 1 2 2 0 0 1 3 0 1 1 2 7 1 1 3 5 8 5 3 2 4 3 3 3 1 4 2 1 1 5 7 9 3 1 1 3 6 6 8 6 6 8 12 14 14 13 13
Wind_Direction
345 347 347 346 346 346 343 344 342 342 345 343 339 333 330 329 330 322 317 318 313 305 303 299 292 288 284 294 304 323 329 22 1 138 31 237 190 207 230 236 255 67 127 121 319 13 331 340 355 336 161 68 343 41 319 35 345 54 61 104 58 139 46 234 157 169 150 127 172 188 163 113 110 115 136 65 55 78 64 57 18 39 39 36 20 36 36 102
343 344 345 345 345 344 343 342 341 342 344 343 340 338 333 331 329 328 323 320 316 305 302 294 284 280 286 297 311 324 343 359 286 289 232 196 175 181 228 243 256 100 193 52 59 6 5 328 11 14 35 40 325 44 355 55 18 72 90 80 119 359 313 251 133 126 124 146 149 124 145 241 140 182 103 103 73 71 73 43 35 64 39 35 37 16 38 37
342 340 342 342 343 343 342 339 338 339 343 342 341 336 336 331 330 328 326 323 316 315 296 286 278 280 292 302 304 314 344 296 339 326 299 163 174 202 224 239 191 174 187 173 192 151 216 266 324 3 26 75 10 41 40 7 56 21 103 80 35 257 3 23 135 154 126 138 133 133 182 240 151 89 133 103 106 75 88 105 54 69 80 40 356 344 348 26
340 338 338 338 339 339 339 338 336 332 338 340 336 337 335 331 326 329 328 322 322 313 301 281 280 298 300 289 290 302 152 36 24 278 265 190 210 212 224 247 225 171 150 180 193 208 185 255 38 225 60 63 21 37 40 342 78 354 67 77 318 6 61 356 99 118 126 141 142 166 171 109 78 86 104 131 95 50 46 340 137 137 137 119 359 16 61 49
338 337 338 336 338 338 338 337 332 332 335 336 334 334 335 320 323 329 329 330 331 311 293 289 295 296 284 292 314 271 10 52 279 245 231 178 208 226 221 229 233 184 154 162 220 260 314 5 199 48 68 45 8 32 26 358 55 89 110 177 172 79 72 71 85 119 129 133 118 108 102 107 93 61 57 20 110 144 177 138 128 140 146 144 136 91 80 91
336 338 338 337 336 338 334 334 330 323 326 339 334 329 332 338 335 322 331 328 324 308 300 304 300 275 283 337 314 275 79 78 243 248 167 199 202 216 225 229 225 161 100 71 330 319 75 35 77 37 26 48 25 72 330 11 354 86 1 85 10 56 110 121 114 103 100 105 99 93 98 98 79 75 30 74 73 133 137 146 153 151 154 156 121 108 84 81
335 336 338 338 334 336 334 332 329 315 333 340 342 342 340 339 335 336 333 322 318 320 313 309 274 280 300 293 262 65 113 241 255 240 159 197 209 213 238 320 2 354 31 25 57 71 92 91 79 101 102 75 37 64 31 47 29 90 75 343 19 344 106 81 90 92 88 89 85 99 101 92 110 83 347 80 40 113 144 136 122 100 98 101 93 90 108 109
336 338 338 337 332 331 332 333 327 338 339 341 345 344 340 337 338 334 332 319 316 349 334 279 262 283 341 307 51 10 60 247 240 240 195 187 205 225 74 334 295 347 14 304 342 65 106 95 110 96 58 93 168 96 166 57 18 65 75 266 200 105 90 94 95 93 90 86 92 88 80 68 73 103 104 56 68 79 88 82 83 92 85 94 103 112 113 97
339 338 338 335 327 324 326 328 337 339 331 328 344 341 337 336 333 333 328 311 322 355 308 260 279 85 80 87 92 39 359 241 208 193 172 176 170 122 141 231 229 331 14 328 285 109 95 115 142 108 163 101 72 102 190 87 22 7 100 71 95 89 86 93 92 92 95 91 99 86 83 84 97 93 49 330 45 14 71 77 80 76 88 103 124 128 117 109
340 340 334 334 328 328 325 331 339 330 315 335 338 338 332 330 329 328 319 300 293 52 235 280 229 130 41 46 27 84 257 191 190 169 181 86 116 146 135 186 157 158 35 2 49 40 63 124 119 114 116 79 116 87 141 75 153 178 141 106 94 94 92 87 101 95 91 100 107 106 115 130 168 93 158 297 226 51 83 80 84 117 124 119 126 117 119 116
340 340 339 336 330 326 331 338 334 322 324 336 334 331 328 325 323 318 312 284 265 118 200 191 69 124 15 40 92 276 254 109 226 156 138 147 180 136 231 175 201 141 169 54 51 43 78 131 130 139 44 136 102 44 92 115 115 88 98 87 83 81 89 103 95 107 110 78 108 114 124 132 354 70 173 191 222 104 122 116 99 116 130 133 137 122 98 99
338 340 339 332 331 324 336 337 331 313 333 332 330 326 322 321 318 311 306 265 247 165 174 125 141 242 72 111 153 219 230 201 171 127 150 166 195 222 233 193 106 110 88 72 42 26 69 118 128 89 149 128 79 98 67 112 94 112 106 91 76 87 90 110 127 155 106 123 138 138 80 21 357 129 213 227 141 128 142 104 91 130 143 148 122 74 102 134
336 337 338 330 329 335 335 335 326 332 332 329 324 323 318 318 311 300 261 261 203 154 153 135 164 223 92 348 237 234 276 58 124 114 164 163 164 121 138 105 83 80 93 98 85 48 73 98 92 93 131 104 117 101 130 96 97 76 32 112 79 49 88 151 87 99 122 164 171 154 33 301 323 245 248 240 158 153 115 114 122 170 159 137 108 112 111 102
337 336 333 329 338 335 335 332 333 332 332 327 320 316 316 314 302 293 213 197 147 145 137 148 162 139 78 241 282 244 206 172 134 167 140 200 123 25 55 47 65 71 59 95 110 103 79 96 100 109 116 101 126 101 56 50 44 99 123 63 102 90 163 174 152 145 142 182 138 85 136 261 253 244 255 229 174 164 188 180 158 187 169 146 122 125 131 128
334 332 337 339 339 335 334 337 333 332 329 325 318 314 314 315 299 292 159 141 186 142 121 130 19 70 41 276 252 296 158 56 55 139 200 124 102 54 36 63 67 69 70 75 74 7 97 87 80 61 59 2 80 58 33 48 31 56 48 344 356 101 196 245 174 167 147 208 180 82 67 219 226 225 226 214 187 168 203 167 161 168 171 146 137 128 118 122
328 333 338 339 338 336 334 337 335 331 328 323 321 315 311 313 282 215 149 160 153 125 161 43 12 34 37 323 276 304 53 120 235 179 154 119 116 133 153 109 91 42 27 6 54 46 30 73 67 138 109 23 64 97 72 42 352 23 114 222 234 101 178 144 212 192 196 147 201 120 183 65 284 225 217 218 191 184 196 183 171 178 175 155 147 135 137 127
335 334 336 339 339 336 335 335 336 332 327 323 325 313 319 40 152 118 124 122 133 182 204 99 130 125 66 250 16 353 263 246 184 119 92 111 128 132 115 89 60 97 67 63 48 59 7 67 7 47 47 120 141 103 76 32 12 326 42 155 216 149 164 234 187 200 198 150 185 139 129 205 213 191 205 213 207 193 202 187 183 171 178 168 159 152 163 185
338 334 335 339 338 337 335 335 336 333 327 323 322 301 300 350 123 101 79 108 125 153 241 249 354 25 301 351 302 240 216 179 169 141 119 154 133 141 141 122 189 146 65 9 2 53 347 58 40 161 16 11 50 60 94 150 174 206 258 82 49 51 165 195 149 231 184 202 125 125 121 192 206 184 203 210 201 196 209 198 181 166 171 176 177 162 179 202
341 335 333 339 339 338 336 330 336 331 329 319 299 285 200 112 149 292 71 21 17 9 14 344 44 72 180 238 267 301 254 165 71 98 178 123 142 141 87 103 117 134 355 56 312 62 352 51 37 46 60 344 211 148 156 182 149 177 169 163 153 143 209 201 225 178 173 137 123 147 167 188 194 198 211 216 201 198 206 201 183 165 168 174 176 162 173 203
342 338 333 337 340 337 337 333 334 330 337 339 357 6 24 12 9 342 337 11 99 195 248 256 243 233 278 291 275 220 316 71 133 176 156 117 110 97 60 75 11 56 79 59 320 23 109 76 87 119 178 200 189 175 160 130 139 136 153 142 178 170 214 230 193 159 160 118 169 173 161 172 200 199 208 213 207 202 183 187 187 168 166 177 169 166 184 181
342 340 335 336 339 338 335 333 331 327 333 314 320 35 57 7 20 338 331 286 257 245 257 273 253 231 249 271 283 154 167 315 72 147 170 196 102 84 326 40 15 39 345 151 118 297 66 67 356 242 169 156 158 149 104 78 71 110 100 65 201 150 183 202 187 147 170 127 220 167 161 197 201 213 214 216 209 208 185 185 184 170 172 180 168 173 180 185
341 341 337 336 338 338 334 331 329 323 314 236 25 49 45 24 192 206 125 314 317 289 242 259 281 302 278 262 245 176 111 77 320 115 213 115 227 81 309 99 96 94 250 55 19 13 30 72 257 239 188 110 101 110 89 91 109 60 107 155 84 230 198 249 179 151 183 92 207 170 168 208 209 213 214 204 210 201 188 186 181 168 174 176 172 170 171 153
340 340 338 333 338 335 333 326 327 318 346 21 20 27 30 305 343 326 183 266 263 264 278 259 266 248 255 239 211 78 128 141 235 145 186 136 310 147 142 76 45 220 51 68 122 60 33 301 247 253 112 120 95 105 93 72 55 96 47 56 222 188 123 247 251 187 164 114 178 170 185 238 229 223 218 210 203 190 189 181 172 171 170 176 175 171 169 171
338 341 338 336 336 337 326 326 310 323 2 332 280 23 307 345 357 4 59 216 271 307 212 233 209 254 248 291 240 117 139 244 134 232 186 148 136 163 83 149 122 51 285 165 132 124 184 225 228 51 105 137 133 114 101 80 50 354 98 159 146 50 236 155 203 98 26 32 96 92 77 333 189 194 239 244 227 174 171 176 166 174 176 170 155 163 173 172
335 339 341 334 339 336 324 321 35 333 308 286 49 360 346 345 6 357 31 340 348 283 246 264 165 265 245 354 9 88 253 327 205 177 163 130 131 72 227 172 102 246 214 125 111 75 31 261 121 100 106 125 122 143 193 128 77 321 212 175 161 89 66 66 110 94 24 346 286 131 41 287 241 210 209 227 209 183 170 161 176 164 164 156 165 179 188 169
333 337 341 339 338 339 318 21 347 334 327 52 340 332 331 335 348 344 103 73 331 269 342 284 23 273 60 247 78 171 59 323 219 202 158 178 152 142 53 286 126 271 256 127 159 163 200 261 118 120 103 112 124 151 200 107 141 74 233 182 169 115 108 103 332 85 84 158 247 125 125 265 302 226 223 218 192 193 169 171 170 161 169 173 175 182 179 161
332 335 339 340 340 345 5 353 315 314 21 322 334 325 324 314 331 15 59 5 19 251 175 252 66 227 88 240 142 52 37 265 301 305 82 248 141 168 121 255 12 302 200 123 42 329 151 275 37 60 72 65 63 84 185 128 103 159 235 186 189 110 123 144 148 134 204 216 58 52 127 176 283 263 212 207 175 201 189 192 168 172 174 178 179 183 170 163
329 332 336 338 336 337 206 314 336 337 242 261 312 309 313 315 325 61 77 60 15 281 64 278 227 345 343 45 73 135 198 202 32 244 212 206 104 356 106 190 171 217 248 73 129 252 156 197 133 88 67 66 173 212 169 141 126 215 203 184 173 132 121 129 109 108 152 95 300 328 5 35 260 273 189 160 180 222 214 195 187 179 178 179 180 185 167 171
326 328 334 335 333 317 148 208 305 260 248 298 304 307 315 335 73 104 112 103 256 234 269 126 289 9 284 281 169 219 300 198 165 250 347 14 54 147 38 230 186 186 179 132 159 207 251 160 195 142 117 153 228 268 198 128 83 237 134 78 71 78 64 103 98 81 12 68 308 303 7 142 283 286 125 192 204 219 214 201 190 179 181 179 180 184 165 171
323 324 330 337 334 42 315 246 216 245 282 302 304 306 330 66 40 38 13 314 264 290 237 244 133 219 141 142 275 327 162 274 196 347 26 169 249 26 142 130 133 87 240 34 101 203 195 67 146 108 177 194 178 228 173 92 144 133 109 91 60 41 35 37 61 84 58 40 277 247 304 129 280 244 185 156 214 205 191 202 199 178 180 178 179 180 168 171
322 321 322 339 320 305 320 317 259 233 282 316 315 318 65 35 112 94 106 226 295 258 345 281 255 31 138 170 255 302 22 211 260 128 223 360 314 16 27 2 33 49 30 358 29 337 61 48 128 241 172 112 107 74 4 58 31 89 80 118 70 355 14 24 349 35 86 291 256 263 308 105 147 298 258 225 272 187 178 189 181 180 179 177 179 183 173 171
320 319 315 328 252 289 170 259 270 340 328 325 337 22 65 37 7 111 204 299 76 288 154 250 246 181 218 238 166 215 179 303 184 159 179 183 188 142 249 159 182 33 357 169 202 354 58 270 264 312 225 128 74 68 336 19 9 67 80 51 97 285 33 345 6 19 13 159 248 265 303 35 228 216 215 223 239 209 195 182 179 177 176 174 179 181 173 173
320 316 313 296 218 181 235 244 292 297 323 331 10 52 64 97 221 267 321 302 251 174 276 350 231 219 191 23 290 260 205 223 267 212 156 236 157 246 241 168 190 147 167 238 149 33 272 289 338 148 11 87 107 116 291 7 341 36 59 116 70 65 42 40 293 228 320 295 269 277 236 223 254 293 238 240 243 213 194 183 171 171 173 174 178 176 170 172
315 316 316 280 251 237 254 251 256 304 339 355 66 34 49 71 251 241 226 242 247 299 266 227 270 335 130 175 239 138 311 262 160 226 149 155 151 219 258 277 147 101 91 190 145 189 64 349 291 164 298 241 111 157 177 168 124 128 158 117 169 142 147 136 222 61 227 222 280 290 42 254 16 258 300 300 291 206 177 165 167 170 169 170 175 171 165 165
312 301 272 294 282 240 224 241 250 235 294 18 54 82 124 233 223 202 273 302 309 297 286 304 260 108 337 278 261 193 159 291 171 118 129 124 223 178 189 236 240 115 110 114 249 89 179 200 247 207 200 157 159 212 130 110 57 303 141 83 54 218 143 122 217 159 267 320 347 343 228 188 195 254 321 313 45 109 133 136 141 156 161 164 160 169 168 167
320 325 301 269 286 258 183 203 178 144 107 53 75 69 183 192 177 201 235 222 302 318 305 356 57 49 306 319 304 6 317 128 293 79 220 175 214 170 251 196 189 171 146 146 192 189 34 324 294 68 62 166 174 146 219 133 63 250 65 197 224 164 114 95 55 36 46 50 275 239 327 304 302 338 318 29 68 92 122 140 150 159 163 161 169 171 169 168
338 329 340 305 284 265 255 190 144 110 62 85 91 243 208 274 197 205 273 346 267 293 35 54 314 75 349 328 290 322 314 33 278 129 242 39 348 281 277 300 214 93 183 128 269 183 132 236 284 117 223 272 174 133 188 229 135 81 100 237 136 79 115 121 148 343 55 109 268 11 247 300 30 244 325 59 88 122 142 155 164 162 156 168 174 174 172 172
323 308 257 269 250 250 261 153 107 55 79 79 199 220 211 211 274 219 300 316 310 345 77 85 286 80 335 43 317 312 321 106 285 49 204 190 199 226 279 215 210 157 213 190 124 255 106 53 265 206 194 192 86 82 1 320 174 126 195 185 92 287 332 338 88 4 8 356 288 315 247 262 171 253 350 163 145 163 170 164 158 168 175 173 174 178 170 158
281 8 334 271 248 193 170 101 71 78 59 60 260 9 266 227 251 287 282 283 254 265 72 304 136 298 111 8 281 302 322 6 298 52 82 287 93 240 212 177 264 36 175 130 76 203 60 126 299 302 172 120 81 92 205 258 312 32 81 48 225 95 152 99 202 172 115 269 32 291 33 250 226 218 192 188 210 171 167 172 183 182 183 173 174 172 167 167
347 11 298 271 321 127 113 69 67 48 69 170 227 224 243 295 278 277 267 247 304 89 251 185 225 292 345 218 60 307 299 9 321 279 116 270 152 237 242 357 267 37 60 77 117 101 65 110 122 274 300 78 154 186 205 183 208 314 41 320 337 36 210 122 51 150 211 170 177 204 330 282 263 217 179 205 193 196 176 185 190 190 184 179 175 171 171 169
305 134 264 275 348 352 44 48 59 107 169 259 183 244 323 263 318 304 310 293 257 182 151 163 82 41 226 343 331 273 310 331 330 351 92 323 103 352 248 202 198 151 79 34 46 20 85 59 151 292 32 150 237 230 191 189 180 169 167 196 172 123 86 58 283 342 112 89 207 125 253 264 267 178 199 202 208 189 194 184 192 193 182 180 177 175 168 170
49 345 263 279 318 16 73 35 289 197 136 162 235 198 272 287 278 276 300 291 356 292 292 103 292 189 236 230 216 325 348 312 338 46 350 41 308 191 281 237 260 161 115 143 146 209 145 140 96 70 221 270 256 275 244 194 171 165 148 217 165 129 112 105 141 272 35 240 113 150 101 280 242 242 186 214 206 203 192 188 189 194 183 177 177 176 177 171
118 227 261 292 307 41 65 331 301 5 227 231 262 280 268 269 254 285 292 293 323 221 322 50 199 33 267 193 314 345 45 325 104 63 283 343 306 340 316 339 108 18 74 326 29 300 80 66 39 302 310 302 334 322 333 84 92 34 347 88 101 162 183 170 181 188 139 10 355 334 216 253 290 276 233 234 217 210 213 195 186 192 175 170 168 172 169 161
231 284 311 295 357 100 93 199 268 282 269 306 332 269 319 256 286 289 269 312 48 347 45 303 319 179 234 238 161 346 308 31 291 23 332 314 342 338 14 33 66 35 95 204 124 256 71 295 118 44 359 337 343 350 359 336 37 105 288 267 165 106 89 143 120 28 85 229 171 124 237 284 271 312 307 225 248 224 217 221 187 182 178 167 170 170 167 160
294 277 240 290 349 84 188 194 148 206 278 329 313 326 320 318 240 228 215 255 298 173 21 310 232 280 282 273 101 137 313 132 283 300 358 360 321 9 6 32 44 56 41 71 106 101 98 197 93 112 124 92 323 324 312 321 284 282 320 305 50 127 141 82 52 48 114 299 101 125 255 253 272 297 267 231 224 239 242 229 241 194 171 164 167 167 164 164
354 11 297 329 339 57 288 169 137 165 296 326 359 273 211 264 313 298 310 291 178 286 186 220 310 7 347 23 26 14 330 347 98 282 26 335 323 21 334 24 39 47 49 56 58 73 146 103 104 154 148 177 203 209 245 190 331 336 286 337 314 292 75 102 97 95 183 209 182 223 189 264 303 286 273 243 222 217 231 228 195 177 182 164 164 167 169 169
282 162 234 326 340 336 262 348 308 95 235 183 192 246 279 266 264 310 286 283 304 149 337 222 200 352 306 33 350 340 309 337 347 41 19 19 319 333 315 50 41 34 48 73 22 92 63 47 344 96 108 175 187 197 233 176 44 307 5 333 342 0 2 102 116 238 168 92 311 259 203 172 254 253 248 236 234 234 225 212 188 187 175 169 173 168 161 160
149 253 94 225 175 251 254 295 205 235 270 171 238 292 271 305 352 332 316 287 311 359 84 328 20 336 163 172 105 9 321 339 33 17 334 10 341 349 360 338 52 339 41 6 357 103 128 101 285 101 321 296 263 15 40 57 117 205 168 356 17 311 338 64 242 194 135 150 198 243 179 192 256 243 240 227 196 207 209 207 197 187 165 147 153 163 168 167
171 275 262 307 82 249 169 248 285 207 254 202 243 218 251 251 279 225 195 320 323 319 192 231 295 281 274 128 107 181 352 40 325 321 42 324 23 345 1 338 339 9 20 41 4 90 87 93 269 122 100 338 344 348 36 35 343 348 358 334 308 205 258 225 234 163 179 209 225 229 181 214 232 254 246 241 207 201 205 189 114 145 169 172 171 170 170 170
234 105 294 342 336 293 283 299 217 122 308 230 197 257 199 222 259 307 325 77 348 318 313 254 266 283 42 49 63 99 217 165 180 18 282 60 333 50 342 173 293 321 24 5 49 334 101 270 180 77 59 325 311 341 13 64 51 345 320 331 331 309 305 308 86 223 117 317 305 343 5 279 268 246 262 282 181 174 116 150 188 183 171 175 176 175 174 174
247 224 298 347 343 269 293 328 348 307 169 324 111 271 155 273 259 240 256 188 192 249 353 65 291 296 40 87 92 113 189 144 259 183 252 141 32 259 56 275 74 318 346 344 35 330 70 215 44 68 69 317 294 360 328 7 15 359 323 313 322 5 3 309 341 251 91 279 322 83 290 261 270 266 271 6 142 160 186 195 189 192 184 175 179 178 176 172
304 278 214 182 220 281 313 312 306 14 271 234 184 244 268 266 265 341 343 295 140 125 236 166 128 103 351 62 88 140 174 144 264 269 236 242 219 247 210 227 248 250 268 308 216 97 149 126 87 78 66 260 264 45 2 31 21 346 312 261 232 259 237 278 283 276 217 177 66 254 230 228 230 260 248 240 182 188 201 199 201 196 187 183 182 183 180 175